Change the Weather History Date:

Saturday, December 1, 2012

  Actual Average Record
Temperature  
Mean Temperature 83 °F -  
Max Temperature 88 °F 84 °F 88 °F (2012)
Min Temperature 78 °F 76 °F 73 °F (1997)
Cooling Degree Days 18    
Growing Degree Days 33 (Base 50)    
Moisture  
Dew Point 73 °F    
Average Humidity 73    
Maximum Humidity 85    
Minimum Humidity 61    
Precipitation  
Precipitation 0.00 in - - ()
Sea Level Pressure  
Sea Level Pressure 29.96 in    
Wind  
Wind Speed 10 mph (ENE)    
Max Wind Speed 16 mph    
Max Gust Speed 23 mph    
Visibility 10 miles    
Events      
Averages and records for this station are not official NWS values.
T = Trace of Precipitation, MM = Missing Value Source: NWS Daily Summary

Daily Weather History Graph

Daily Weather History Graph

Search for Another Location

Airport or City:

Trip Planner

Search our weather history database for the weather conditions in past years. The results will help you decide how hot, cold, wet, or windy it might be!

Date:

Astronomy

Dec. 01, 2012 Rise Set
Actual Time 6:27 AM ChST 5:45 PM ChST
Civil Twilight 6:04 AM ChST 6:08 PM ChST
Nautical Twilight 5:37 AM ChST 6:34 PM ChST
Astronomical Twilight 5:11 AM ChST 7:00 PM ChST
Moon 7:54 PM ChST 8:15 AM ChST
Length of Visible Light 12h 04m
Length of Day
11h 17m
Waning Gibbous, 95% of the Moon is Illuminated
Dec 1
Waning Gibbous
Dec 7
Last Quarter
Dec 13
New
Dec 20
First Quarter
Dec 28
Full

Hourly Weather History & Observations

Time (ChST) Temp. Heat Index Dew Point Humidity Pressure Visibility Wind Dir Wind Speed Gust Speed Precip Events Conditions
12:54 AM 81.0 °F 85.2 °F 72.0 °F 74% 29.95 in 10.0 mi East 10.4 mph - N/A   Partly Cloudy
1:54 AM 81.0 °F 85.2 °F 72.0 °F 74% 29.95 in 10.0 mi East 9.2 mph - N/A   Scattered Clouds
2:54 AM 80.1 °F 83.8 °F 72.0 °F 76% 29.93 in 10.0 mi East 9.2 mph - N/A   Partly Cloudy
3:54 AM 80.1 °F 84.2 °F 73.0 °F 79% 29.93 in 10.0 mi East 6.9 mph - N/A   Partly Cloudy
4:54 AM 80.1 °F 83.8 °F 72.0 °F 76% 29.94 in 10.0 mi ENE 8.1 mph - N/A   Scattered Clouds
5:54 AM 78.1 °F - 72.0 °F 81% 29.95 in 10.0 mi NNE 3.5 mph - N/A   Scattered Clouds
6:54 AM 81.0 °F 85.8 °F 73.0 °F 77% 29.96 in 10.0 mi NNE 6.9 mph - N/A   Mostly Cloudy
7:54 AM 84.0 °F 91.2 °F 73.9 °F 72% 29.98 in 10.0 mi NNE 8.1 mph - N/A   Mostly Cloudy
8:54 AM 87.1 °F 95.4 °F 73.9 °F 65% 30.01 in 10.0 mi NNE 11.5 mph - N/A   Mostly Cloudy
9:54 AM 84.9 °F 90.7 °F 72.0 °F 65% 30.00 in 10.0 mi NE 9.2 mph - N/A   Mostly Cloudy
10:54 AM 87.1 °F 94.5 °F 73.0 °F 63% 29.99 in 10.0 mi ENE 16.1 mph - N/A   Scattered Clouds
11:54 AM 88.0 °F 95.6 °F 73.0 °F 61% 29.97 in 10.0 mi ENE 15.0 mph - N/A   Scattered Clouds
12:54 PM 86.0 °F 93.0 °F 73.0 °F 65% 29.95 in 10.0 mi ENE 13.8 mph - N/A   Mostly Cloudy
1:54 PM 87.1 °F 94.5 °F 73.0 °F 63% 29.94 in 10.0 mi ENE 13.8 mph - N/A   Mostly Cloudy
2:54 PM 86.0 °F 93.0 °F 73.0 °F 65% 29.94 in 10.0 mi ENE 13.8 mph - N/A   Mostly Cloudy
3:54 PM 84.9 °F 90.7 °F 72.0 °F 65% 29.94 in 10.0 mi NE 11.5 mph - N/A   Mostly Cloudy
4:54 PM 84.0 °F 90.2 °F 73.0 °F 69% 29.96 in 10.0 mi ENE 15.0 mph - N/A   Mostly Cloudy
5:54 PM 82.9 °F 89.4 °F 73.9 °F 74% 29.98 in 10.0 mi East 15.0 mph 23.0 mph N/A   Overcast
6:54 PM 80.1 °F 83.8 °F 72.0 °F 76% 29.98 in 10.0 mi East 3.5 mph - N/A   Mostly Cloudy
7:54 PM 79.0 °F - 72.0 °F 79% 29.96 in 10.0 mi ENE 9.2 mph - N/A   Partly Cloudy
8:54 PM 79.0 °F - 73.9 °F 84% 29.98 in 10.0 mi NE 6.9 mph - N/A   Scattered Clouds
9:46 PM 80.6 °F 86.2 °F 75.2 °F 84% 29.93 in 10.0 mi NE 5.8 mph - N/A   Overcast
9:54 PM 80.1 °F 85.1 °F 75.0 °F 85% 29.99 in 10.0 mi NE 5.8 mph - N/A   Overcast
10:31 PM 80.6 °F 86.2 °F 75.2 °F 84% 29.92 in 10.0 mi North 6.9 mph - N/A   Overcast
10:54 PM 81.0 °F 86.2 °F 73.9 °F 79% 29.99 in 10.0 mi NE 13.8 mph - N/A   Mostly Cloudy
11:54 PM 82.0 °F 87.4 °F 73.0 °F 74% 29.99 in 10.0 mi NE 13.8 mph - N/A   Scattered Clouds